User: anonymous   Login
Location: Unspecified
(0.0000°N, 0.0000°E)
Time: 00:07:47
(UTC+00:00)
Language:

STARLINK-4776 - Orbit

View from above orbital plane
View from above orbital plane
View from above satellite
View from above satellite

Ground track
Ground track

The orbit is defined by the following mean orbital elements,

1 53837U          26145.18468678 +.00000000 +00000-0 +86284-3 0 00006
2 53837  53.2137 320.4317 0001363 107.4094 252.7047 15.08771576    01
Epoch (UTC): 25 May 2026 04:25:56
Eccentricity: 0.0001363
inclination: 53.2137°
perigee height: 539 km
apogee height: 541 km
right ascension of ascending node: 320.4317°
argument of perigee: 107.4094°
revolutions per day: 15.08771576
mean anomaly at epoch: 252.7047°

The dashed part of the orbit path shows where the satellite is in the earth's shadow,  

DLR